Stündliche Wetter Dzierslawice

Heute, 14 Juni, Montag

Zeit Temperatur Niederschläge Wind Luftdruck Luftfeuchtigkeit
00:00 +10°C° 0 mm 2 m/S 766 mmHg 89%
01:00 +9°C° 0 mm 2 m/S 766 mmHg 92%
02:00 +9°C° 0 mm 2 m/S 766 mmHg 93%
03:00 +9°C° 0 mm 2 m/S 766 mmHg 93%
04:00 +9°C° 0 mm 2 m/S 766 mmHg 94%
05:00 +12°C° 0 mm 2 m/S 766 mmHg 87%
06:00 +14°C° 0 mm 2 m/S 766 mmHg 80%
07:00 +16°C° 0 mm 2 m/S 766 mmHg 73%
08:00 +17°C° 0 mm 2 m/S 765 mmHg 66%
09:00 +19°C° 0 mm 2 m/S 765 mmHg 60%
10:00 +21°C° 0 mm 2 m/S 765 mmHg 53%
11:00 +23°C° 0 mm 2 m/S 764 mmHg 50%
12:00 +24°C° 0 mm 2 m/S 764 mmHg 48%
13:00 +25°C° 0 mm 2 m/S 763 mmHg 45%
14:00 +25°C° 0 mm 2 m/S 763 mmHg 45%
15:00 +26°C° 0 mm 2 m/S 763 mmHg 44%
16:00 +26°C° 0 mm 2 m/S 762 mmHg 44%
17:00 +25°C° 0 mm 2 m/S 762 mmHg 49%
18:00 +24°C° 0 mm 1 m/S 762 mmHg 55%
19:00 +23°C° 0 mm 1 m/S 761 mmHg 60%
20:00 +22°C° 0 mm 1 m/S 761 mmHg 63%
21:00 +19°C° 0 mm 2 m/S 762 mmHg 66%
22:00 +18°C° 0 mm 2 m/S 762 mmHg 69%
23:00 +17°C° 0 mm 2 m/S 761 mmHg 71%

Morgen, 15 Juni, Dienstag

Zeit Temperatur Niederschläge Wind Luftdruck Luftfeuchtigkeit
00:00 +17°C° 0 mm 2 m/S 761 mmHg 73%
01:00 +16°C° 0 mm 2 m/S 761 mmHg 75%
02:00 +16°C° 0 mm 2 m/S 761 mmHg 77%
03:00 +16°C° 0 mm 2 m/S 761 mmHg 78%
04:00 +16°C° 0 mm 2 m/S 761 mmHg 80%
05:00 +17°C° 0 mm 2 m/S 761 mmHg 77%
06:00 +18°C° 0 mm 2 m/S 761 mmHg 74%
07:00 +20°C° 0 mm 2 m/S 761 mmHg 71%
08:00 +20°C° 0 mm 2 m/S 761 mmHg 69%
09:00 +21°C° 0 mm 2 m/S 761 mmHg 67%
10:00 +23°C° 0 mm 2 m/S 761 mmHg 65%
11:00 +23°C° 0.2 mm 2 m/S 761 mmHg 67%
12:00 +22°C° 0.2 mm 3 m/S 761 mmHg 69%
13:00 +22°C° 0.2 mm 3 m/S 761 mmHg 71%
14:00 +22°C° 0.7 mm 3 m/S 761 mmHg 71%
15:00 +22°C° 0.7 mm 3 m/S 761 mmHg 71%
16:00 +22°C° 0.7 mm 3 m/S 761 mmHg 72%
17:00 +21°C° 0.2 mm 3 m/S 761 mmHg 72%
18:00 +20°C° 0.2 mm 3 m/S 762 mmHg 72%
19:00 +20°C° 0.2 mm 3 m/S 762 mmHg 71%
20:00 +18°C° 0 mm 3 m/S 762 mmHg 72%
21:00 +16°C° 0 mm 2 m/S 762 mmHg 73%
22:00 +14°C° 0 mm 2 m/S 763 mmHg 73%
23:00 +13°C° 0 mm 2 m/S 763 mmHg 74%

übermorgen, 16 Juni, Mittwoch

Zeit Temperatur Niederschläge Wind Luftdruck Luftfeuchtigkeit
00:00 +12°C° 0 mm 2 m/S 763 mmHg 74%
01:00 +12°C° 0 mm 2 m/S 763 mmHg 74%
02:00 +10°C° 0 mm 2 m/S 763 mmHg 74%
03:00 +10°C° 0 mm 2 m/S 763 mmHg 75%
04:00 +11°C° 0 mm 1 m/S 763 mmHg 76%
05:00 +12°C° 0 mm 2 m/S 763 mmHg 70%
06:00 +14°C° 0 mm 2 m/S 763 mmHg 64%
07:00 +16°C° 0 mm 2 m/S 763 mmHg 58%
08:00 +18°C° 0 mm 2 m/S 763 mmHg 54%
09:00 +20°C° 0 mm 2 m/S 763 mmHg 49%
10:00 +23°C° 0 mm 1 m/S 763 mmHg 44%
11:00 +24°C° 0 mm 1 m/S 763 mmHg 41%
12:00 +25°C° 0 mm 2 m/S 763 mmHg 39%
13:00 +26°C° 0 mm 2 m/S 762 mmHg 36%
14:00 +26°C° 0 mm 2 m/S 762 mmHg 36%
15:00 +27°C° 0 mm 2 m/S 762 mmHg 36%
16:00 +27°C° 0 mm 2 m/S 762 mmHg 36%
17:00 +26°C° 0 mm 2 m/S 762 mmHg 44%
18:00 +25°C° 0 mm 3 m/S 761 mmHg 51%
19:00 +22°C° 0 mm 3 m/S 761 mmHg 59%
20:00 +21°C° 0 mm 3 m/S 762 mmHg 65%
21:00 +19°C° 0 mm 3 m/S 762 mmHg 70%
22:00 +17°C° 0 mm 3 m/S 762 mmHg 76%
23:00 +17°C° 0 mm 3 m/S 762 mmHg 77%

17 Juni, Donnerstag

Zeit Temperatur Niederschläge Wind Luftdruck Luftfeuchtigkeit
00:00 +16°C° 0 mm 3 m/S 762 mmHg 78%
01:00 +16°C° 0 mm 3 m/S 762 mmHg 79%
02:00 +14°C° 0 mm 3 m/S 762 mmHg 81%
03:00 +14°C° 0 mm 3 m/S 762 mmHg 82%
04:00 +13°C° 0 mm 3 m/S 762 mmHg 84%
05:00 +16°C° 0 mm 3 m/S 762 mmHg 77%
06:00 +18°C° 0 mm 4 m/S 762 mmHg 71%
07:00 +20°C° 0 mm 4 m/S 762 mmHg 64%
08:00 +22°C° 0 mm 4 m/S 762 mmHg 61%
09:00 +25°C° 0 mm 4 m/S 762 mmHg 57%
10:00 +27°C° 0 mm 5 m/S 762 mmHg 54%
11:00 +28°C° 0 mm 5 m/S 762 mmHg 51%
12:00 +28°C° 0 mm 5 m/S 761 mmHg 47%
13:00 +29°C° 0 mm 5 m/S 761 mmHg 44%
14:00 +29°C° 0 mm 5 m/S 761 mmHg 44%
15:00 +29°C° 0 mm 5 m/S 761 mmHg 44%
16:00 +29°C° 0 mm 5 m/S 761 mmHg 44%
17:00 +28°C° 0 mm 5 m/S 761 mmHg 48%
18:00 +26°C° 0 mm 4 m/S 761 mmHg 52%
19:00 +25°C° 0 mm 4 m/S 761 mmHg 56%
20:00 +22°C° 0 mm 4 m/S 761 mmHg 60%
21:00 +21°C° 0 mm 4 m/S 761 mmHg 64%
22:00 +19°C° 0 mm 3 m/S 761 mmHg 68%
23:00 +19°C° 0 mm 3 m/S 761 mmHg 71%

18 Juni, Freitag

Zeit Temperatur Niederschläge Wind Luftdruck Luftfeuchtigkeit
00:00 +18°C° 0 mm 3 m/S 761 mmHg 73%
01:00 +18°C° 0 mm 3 m/S 761 mmHg 76%
02:00 +17°C° 0 mm 3 m/S 760 mmHg 77%
03:00 +17°C° 0 mm 3 m/S 760 mmHg 78%
04:00 +17°C° 0 mm 3 m/S 760 mmHg 79%
05:00 +18°C° 0 mm 3 m/S 760 mmHg 74%
06:00 +20°C° 0 mm 4 m/S 760 mmHg 69%
07:00 +22°C° 0 mm 4 m/S 760 mmHg 64%
08:00 +25°C° 0 mm 4 m/S 760 mmHg 58%
09:00 +27°C° 0 mm 4 m/S 760 mmHg 52%
10:00 +29°C° 0 mm 4 m/S 760 mmHg 46%
11:00 +30°C° 0 mm 4 m/S 760 mmHg 43%
12:00 +32°C° 0 mm 4 m/S 760 mmHg 40%
13:00 +33°C° 0 mm 3 m/S 759 mmHg 38%
14:00 +33°C° 0 mm 4 m/S 759 mmHg 38%
15:00 +33°C° 0 mm 4 m/S 759 mmHg 38%
16:00 +33°C° 0 mm 4 m/S 759 mmHg 38%
17:00 +32°C° 0 mm 4 m/S 759 mmHg 44%
18:00 +30°C° 0 mm 4 m/S 759 mmHg 51%
19:00 +28°C° 0 mm 3 m/S 759 mmHg 57%
20:00 +27°C° 0 mm 3 m/S 760 mmHg 63%
21:00 +25°C° 0 mm 3 m/S 760 mmHg 69%
22:00 +24°C° 0 mm 3 m/S 760 mmHg 75%
23:00 +24°C° 0 mm 3 m/S 760 mmHg 78%

19 Juni, Samstag

Zeit Temperatur Niederschläge Wind Luftdruck Luftfeuchtigkeit
00:00 +22°C° 0 mm 3 m/S 760 mmHg 80%
01:00 +22°C° 0 mm 3 m/S 760 mmHg 83%
02:00 +21°C° 0 mm 3 m/S 760 mmHg 84%
03:00 +21°C° 0 mm 3 m/S 760 mmHg 86%
04:00 +20°C° 0 mm 3 m/S 760 mmHg 87%
05:00 +22°C° 0 mm 3 m/S 761 mmHg 80%
06:00 +25°C° 0 mm 4 m/S 761 mmHg 74%
07:00 +26°C° 0 mm 4 m/S 761 mmHg 67%
08:00 +28°C° 0 mm 4 m/S 761 mmHg 61%
09:00 +29°C° 0 mm 5 m/S 761 mmHg 55%
10:00 +32°C° 0 mm 5 m/S 761 mmHg 50%
11:00 +32°C° 0 mm 5 m/S 761 mmHg 47%
12:00 +33°C° 0 mm 5 m/S 760 mmHg 44%
13:00 +34°C° 0 mm 5 m/S 760 mmHg 42%
14:00 +34°C° 0 mm 5 m/S 760 mmHg 42%
15:00 +33°C° 0 mm 5 m/S 760 mmHg 42%
16:00 +33°C° 0 mm 5 m/S 760 mmHg 43%
17:00 +32°C° 0 mm 4 m/S 760 mmHg 46%
18:00 +30°C° 0 mm 4 m/S 760 mmHg 50%
19:00 +28°C° 0 mm 4 m/S 760 mmHg 53%
20:00 +27°C° 0 mm 4 m/S 760 mmHg 60%
21:00 +26°C° 0 mm 4 m/S 760 mmHg 67%
22:00 +23°C° 0 mm 4 m/S 760 mmHg 74%
23:00 +23°C° 0 mm 4 m/S 760 mmHg 76%
Mehr zeigen

Wir brauchen deine Erlaubnis

Meteoprog und unser Service Anbieter werden persönliche Daten aufbewahren, so wie Cookies, Geräte Bezeichnung oder ähnliche Technologien von deinem Gerät und Prozess, so wie Persönliche Daten Inhalte und Werbungen, genauso wie social Media und den Verkehr zu analysieren.

  • Aufbewahrung und/oder Zugang zu deiner Geräte Informationen.

    Cookies, Geräte Bezeichnung oder andere Informationen, können aufbewahrt oder Zugang zu deinem Gerät erhalten, für den Grund, der oben angegeben wird.

  • Personalisierte Werbung und Inhalte, Messungen, Einblick in das Publikum und Produkt Entwicklung.

    Werbungen und Inhalte können personalisiert werden, basierend auf ein Profil. Mehr Daten können besser personalisierte Werbungen und Inhalte hinzufügen. Werbung und Inhalte können gezeigt und gemessen werden. Einblicke über das Publikum, welche die Werbung gesehen haben und den Inhalt, können abgeleitet werden. So wie Daten können genutzt werden, um es zu verbessern oder die Benutzer Erfahrung zu verbessern das System und die Software.

Wenn du “Ich stimme zu” klickst, erlaubst du uns, die Cookies zu benutzen die Geräte Bezeichnung, den Web oder ähnliche Technologien zu benutzen. Deine Settings, können in deinem Gerät bei deinem Browser geändert werden.

Für den bestimmten Zweck, berechtigten Interessen beruhen darauf, mehr als auf den Inhalt. Du kannst mehr darüber in unseren Privaten und Cookie Politik lesen.